Torna al catalogo

ICEYE-X72

AttivoScienzaSSO
NORAD 68504·PAYLOAD·🇫🇮 Finland

Lanciato Mar 30, 2026 da Vandenberg Space Force Base

Loading…

Prossimi Passaggi (prossime 24 ore)

TLE

AggiornatoSource: Space-Track

Epoca: Sep 14, 2026, 08:15 UTC

1 68504U 26067CS  26257.34402417  .00002100  00000-0  17964-3 0  9994
2 68504  97.7700 215.0389 0002835  53.9453 306.2032 14.98693336 25061

Traccia ICEYE-X72 in tempo reale con AllMySat

Download on the App Store